Retour au catalogue

STARLINK-37576

ActifCommunicationsSSO
NORAD 69047·PAYLOAD·🇺🇸 United States

Lancé May 6, 2026 depuis Vandenberg Space Force Base

Loading…

Prochains Passages (prochaines 24 heures)

TLE

FraisSource: CelesTrak SupGP

Époque: Sep 15, 2026, 03:32 UTC

1 69047C 26101Y   26258.14770833 -.00020513  00000+0 -63688-3 0  2586
2 69047  97.2852 111.7925 0001618  93.0687 279.7211 15.33444504    19

Suivez STARLINK-37576 en temps réel avec AllMySat

Download on the App Store